Weather History for Cody, WY

Change the Weather History Date:

Friday, February 22, 2013

  Actual Average Record
Temperature  
Mean Temperature 26 °F -  
Max Temperature 37 °F 46 °F 90 °F (1949)
Min Temperature 14 °F 21 °F -11 °F (1957)
Degree Days  
Heating Degree Days 40    
Moisture  
Dew Point 10 °F    
Average Humidity 48    
Maximum Humidity 93    
Minimum Humidity 28    
Precipitation  
Precipitation 0.01 in - - ()
Sea Level Pressure  
Sea Level Pressure 29.79 in    
Wind  
Wind Speed 10 mph (West)    
Max Wind Speed 26 mph    
Max Gust Speed 51 mph    
Visibility 10 miles    
Events      
Averages and records for this station are not official NWS values.
T = Trace of Precipitation, MM = Missing Value Source: NWS Daily Summary

Daily Weather History Graph

Daily Weather History Graph

Search for Another Location

Airport:

Trip Planner

Search our weather history database for the weather conditions in past years. The results will help you decide how hot, cold, wet, or windy it might be!

Date:

Astronomy

Feb. 22, 2013 Rise Set
Actual Time 7:04 AM MST 5:55 PM MST
Civil Twilight 6:35 AM MST 6:24 PM MST
Nautical Twilight 6:01 AM MST 6:58 PM MST
Astronomical Twilight 5:27 AM MST 7:32 PM MST
Moon 3:05 PM MST (2/22) 4:56 AM MST (2/22)
Length of Visible Light 11h 49m
Length of Day
10h 50m
Waxing Gibbous, 90% of the Moon is Illuminated
Feb 22
Waxing Gibbous
Feb 25
Full
Mar 4
Last Quarter
Mar 11
New
Mar 19
First Quarter

Hourly Weather History & Observations

Time (MST) Temp. Windchill Dew Point Humidity Pressure Visibility Wind Dir Wind Speed Gust Speed Precip Events Conditions
12:15 AM 19.4 °F 10.4 °F 15.8 °F 86% 29.84 in 10.0 mi WNW 6.9 mph - N/A   Clear
12:35 AM 21.2 °F 13.6 °F 14.0 °F 74% 29.84 in 10.0 mi West 5.8 mph - N/A   Clear
12:55 AM 19.4 °F - 10.4 °F 68% 29.84 in 10.0 mi Calm Calm - N/A   Clear
1:15 AM 21.2 °F 13.6 °F 10.4 °F 63% 29.84 in 10.0 mi WNW 5.8 mph - N/A   Clear
1:35 AM 21.2 °F 14.9 °F 10.4 °F 63% 29.84 in 10.0 mi NNW 4.6 mph - N/A   Clear
1:55 AM 21.2 °F 13.6 °F 10.4 °F 63% 29.84 in 10.0 mi NW 5.8 mph - N/A   Clear
2:15 AM 24.8 °F 14.0 °F 10.4 °F 54% 29.84 in 10.0 mi West 11.5 mph 17.3 mph N/A   Clear
2:35 AM 24.8 °F 15.3 °F 10.4 °F 54% 29.83 in 10.0 mi West 9.2 mph - N/A   Clear
2:55 AM 24.8 °F 16.9 °F 10.4 °F 54% 29.82 in 10.0 mi WNW 6.9 mph - N/A   Clear
3:15 AM 24.8 °F 19.1 °F 10.4 °F 54% 29.83 in 10.0 mi NW 4.6 mph - N/A   Clear
3:35 AM 21.2 °F 14.9 °F 8.6 °F 58% 29.82 in 10.0 mi NNW 4.6 mph - N/A   Clear
3:55 AM 19.4 °F 14.3 °F 10.4 °F 68% 29.83 in 10.0 mi NNW 3.5 mph - N/A   Clear
4:15 AM 19.4 °F - 8.6 °F 63% 29.83 in 10.0 mi Calm Calm - N/A   Clear
4:35 AM 17.6 °F 9.3 °F 8.6 °F 68% 29.84 in 10.0 mi NE 5.8 mph - N/A   Clear
4:55 AM 17.6 °F 12.3 °F 12.2 °F 79% 29.84 in 10.0 mi North 3.5 mph - N/A   Mostly Cloudy
5:15 AM 15.8 °F 7.2 °F 10.4 °F 79% 29.83 in 10.0 mi NNE 5.8 mph - N/A   Mostly Cloudy
5:55 AM 14.0 °F - 12.2 °F 93% 29.84 in 10.0 mi Calm Calm - N/A   Clear
6:35 AM 17.6 °F 9.3 °F 10.4 °F 73% 29.84 in 10.0 mi West 5.8 mph - N/A   Scattered Clouds
7:55 AM 21.2 °F 14.9 °F 10.4 °F 63% 29.85 in 10.0 mi North 4.6 mph - N/A   Clear
8:15 AM 26.6 °F 18.2 °F 12.2 °F 55% 29.86 in 10.0 mi NW 8.1 mph - N/A   Clear
8:35 AM 28.4 °F 19.1 °F 12.2 °F 51% 29.87 in 10.0 mi WNW 10.4 mph 16.1 mph N/A   Clear
8:55 AM 28.4 °F 22.2 °F 10.4 °F 47% 29.87 in 10.0 mi WNW 5.8 mph - N/A   Clear
9:15 AM 28.4 °F 21.2 °F 12.2 °F 51% 29.88 in 10.0 mi NW 6.9 mph - N/A   Clear
9:35 AM 30.2 °F 23.4 °F 12.2 °F 47% 29.88 in 10.0 mi West 6.9 mph - N/A   Clear
9:55 AM 28.4 °F 20.4 °F 14.0 °F 55% 29.88 in 10.0 mi NW 8.1 mph - N/A   Clear
10:15 AM 30.2 °F 23.4 °F 12.2 °F 47% 29.88 in 10.0 mi NW 6.9 mph - N/A   Partly Cloudy
10:35 AM 33.8 °F 26.4 °F 10.4 °F 38% 29.86 in 10.0 mi WSW 9.2 mph 17.3 mph N/A   Partly Cloudy
10:55 AM 33.8 °F 24.8 °F 8.6 °F 35% 29.86 in 10.0 mi WSW 12.7 mph 20.7 mph N/A   Partly Cloudy
11:15 AM 33.8 °F 25.3 °F 8.6 °F 35% 29.85 in 10.0 mi SW 11.5 mph 20.7 mph N/A   Partly Cloudy
11:35 AM 33.8 °F 24.8 °F 8.6 °F 35% 29.84 in 10.0 mi WSW 12.7 mph - N/A   Partly Cloudy
11:55 AM 35.6 °F 26.6 °F 6.8 °F 30% 29.84 in 10.0 mi WSW 13.8 mph 18.4 mph N/A   Clear
12:15 PM 35.6 °F 27.5 °F 6.8 °F 30% 29.84 in 10.0 mi WSW 11.5 mph 18.4 mph N/A   Mostly Cloudy
12:35 PM 35.6 °F 28.6 °F 6.8 °F 30% 29.83 in 10.0 mi West 9.2 mph 16.1 mph N/A   Mostly Cloudy
12:55 PM 37.4 °F 29.8 °F 6.8 °F 28% 29.82 in 10.0 mi West 11.5 mph 18.4 mph N/A   Scattered Clouds
1:15 PM 37.4 °F 28.9 °F 6.8 °F 28% 29.80 in 10.0 mi WSW 13.8 mph 18.4 mph N/A   Clear
1:35 PM 37.4 °F 28.5 °F 6.8 °F 28% 29.79 in 10.0 mi West 15.0 mph 21.9 mph N/A   Clear
1:55 PM 37.4 °F 28.2 °F 6.8 °F 28% 29.78 in 10.0 mi WSW 16.1 mph 25.3 mph N/A   Clear
2:35 PM 35.6 °F 25.2 °F 8.6 °F 33% 29.76 in 10.0 mi WSW 18.4 mph 29.9 mph N/A   Clear
3:15 PM 35.6 °F 23.7 °F 8.6 °F 33% 29.76 in 10.0 mi WSW 24.2 mph 31.1 mph N/A   Clear
3:35 PM 35.6 °F 24.8 °F 6.8 °F 30% 29.75 in 10.0 mi WSW 19.6 mph 34.5 mph N/A   Clear
3:55 PM 35.6 °F 24.2 °F 6.8 °F 30% 29.74 in 10.0 mi WSW 21.9 mph 34.5 mph N/A   Clear
4:15 PM 33.8 °F 20.8 °F 6.8 °F 32% 29.74 in 10.0 mi WSW 26.5 mph 44.9 mph N/A   Clear
4:35 PM 33.8 °F 22.2 °F 6.8 °F 32% 29.74 in 10.0 mi West 20.7 mph 35.7 mph N/A   Clear
4:55 PM 33.8 °F 21.6 °F 6.8 °F 32% 29.74 in 10.0 mi West 23.0 mph 42.6 mph N/A   Clear
5:35 PM 30.2 °F 18.9 °F 8.6 °F 40% 29.74 in 10.0 mi West 16.1 mph 33.4 mph N/A   Clear
5:55 PM 30.2 °F 17.4 °F 6.8 °F 37% 29.74 in 10.0 mi West 20.7 mph 38.0 mph N/A   Clear
6:15 PM 30.2 °F 16.5 °F 8.6 °F 40% 29.74 in 10.0 mi West 24.2 mph 50.6 mph 0.01 in   Clear
7:15 PM 30.2 °F 18.5 °F 8.6 °F 40% 29.72 in 10.0 mi West 17.3 mph 40.3 mph N/A   Clear
7:55 PM 30.2 °F 17.4 °F 10.4 °F 44% 29.71 in 10.0 mi WSW 20.7 mph 39.1 mph N/A   Clear
8:15 PM 30.2 °F 16.5 °F 10.4 °F 44% 29.70 in 10.0 mi WSW 24.2 mph 42.6 mph N/A   Clear
8:35 PM 30.2 °F 16.5 °F 10.4 °F 44% 29.70 in 10.0 mi West 24.2 mph 42.6 mph N/A   Clear
8:55 PM 30.2 °F 16.8 °F 10.4 °F 44% 29.69 in 10.0 mi WSW 23.0 mph 34.5 mph N/A   Clear
9:35 PM 32.0 °F 19.5 °F 12.2 °F 44% 29.69 in 10.0 mi WSW 21.9 mph 39.1 mph N/A   Clear
9:55 PM 32.0 °F 21.6 °F 12.2 °F 44% 29.69 in 10.0 mi West 15.0 mph 36.8 mph N/A   Clear
10:35 PM 33.8 °F 22.8 °F 12.2 °F 41% 29.66 in 10.0 mi WSW 18.4 mph 34.5 mph N/A   Clear
11:15 PM 33.8 °F 20.8 °F 14.0 °F 44% 29.64 in 10.0 mi WSW 26.5 mph 39.1 mph N/A   Partly Cloudy
11:35 PM 33.8 °F 21.3 °F 14.0 °F 44% 29.65 in 10.0 mi WSW 24.2 mph 36.8 mph N/A   Scattered Clouds
11:55 PM 33.8 °F 21.3 °F 14.0 °F 44% 29.65 in 10.0 mi WSW 24.2 mph 34.5 mph N/A   Partly Cloudy